Gadsden, AL

7:15 AM CDT on September 18, 2019 (GMT -0500)
Gadsden Municipal

Weather History for KGAD - May, 2019

Change the Weather History Date:

Wednesday, May 29, 2019

  Actual Average Record
Temperature  
Mean Temperature 76 °F -  
Max Temperature 91 °F 79 °F 99 °F (1941)
Min Temperature 62 °F 58 °F 48 °F (1951)
Cooling Degree Days 12    
Growing Degree Days 26 (Base 50)    
Moisture  
Dew Point 67 °F    
Average Humidity 76    
Maximum Humidity 100    
Minimum Humidity 42    
Precipitation  
Precipitation 0.00 in - - ()
Sea Level Pressure  
Sea Level Pressure 29.93 in    
Wind  
Wind Speed 2 mph ()    
Max Wind Speed 15 mph    
Max Gust Speed 21 mph    
Visibility 7.6 miles    
Events Fog    
Averages and records for this station are not official NWS values.
T = Trace of Precipitation, MM = Missing Value Source: Averaged Metar Reports

Daily Weather History Graph

Daily Weather History Graph

Search for Another Location

Airport or City:

Astronomy

May. 29, 2019 Rise Set
Actual Time 5:35 AM CDT 7:48 PM CDT
Civil Twilight 5:06 AM CDT 8:17 PM CDT
Nautical Twilight 4:31 AM CDT 8:52 PM CDT
Astronomical Twilight 3:54 AM CDT 9:29 PM CDT
Moon 2:56 AM CDT (5/29) 3:12 PM CDT (5/29)
Length of Visible Light 15h 10m
Length of Day
14h 13m
Waning Crescent, 23% of the Moon is Illuminated
May 29
Waning Crescent
Jun 3
New
Jun 10
First Quarter
Jun 17
Full
Jun 25
Last Quarter

Hourly Weather History & Observations

Time (CDT) Temp. Heat Index Dew Point Humidity Pressure Visibility Wind Dir Wind Speed Gust Speed Precip Events Conditions
12:56 AM 68.0 °F - 68.0 °F 100% 29.93 in 10.0 mi Calm Calm - N/A   Clear
1:56 AM 66.9 °F - 66.9 °F 100% 29.92 in 10.0 mi Calm Calm - N/A   Clear
2:56 AM 66.0 °F - 66.0 °F 100% 29.92 in 10.0 mi Calm Calm - N/A   Clear
3:15 AM 64.4 °F - 64.4 °F 100% 29.93 in 1.8 mi Calm Calm - N/A   Clear
3:25 AM 64.4 °F - - N/A% 29.92 in 3.0 mi Calm Calm - N/A   Clear
3:56 AM 64.0 °F - - N/A% 29.93 in 7.0 mi Calm Calm - N/A   Clear
4:56 AM 63.0 °F - 63.0 °F 100% 29.94 in 10.0 mi Calm Calm - N/A   Clear
5:03 AM 62.6 °F - 62.6 °F 100% 29.94 in 1.8 mi Calm Calm - N/A   Clear
5:06 AM 62.6 °F - 62.6 °F 100% 29.94 in 0.8 mi Calm Calm - N/A   Clear
5:18 AM 62.6 °F - - N/A% 29.94 in 1.2 mi Calm Calm - N/A   Clear
5:25 AM 62.6 °F - - N/A% 29.94 in 5.0 mi Calm Calm - N/A   Haze
5:30 AM 62.6 °F - - N/A% 29.94 in 1.2 mi Calm Calm - N/A   Clear
5:32 AM 62.6 °F - - N/A% 29.94 in 0.5 mi Calm Calm - N/A Fog Fog
5:41 AM 62.6 °F - - N/A% 29.95 in 1.8 mi Calm Calm - N/A   Clear
5:48 AM 62.6 °F - - N/A% 29.95 in 8.0 mi Calm Calm - N/A   Clear
5:56 AM 62.1 °F - - N/A% 29.95 in 8.0 mi Calm Calm - N/A   Clear
6:56 AM 68.0 °F - 68.0 °F 100% 29.97 in 10.0 mi Calm Calm - N/A   Clear
7:56 AM 73.9 °F - 73.0 °F 97% 29.98 in 9.0 mi Calm Calm - N/A   Clear
8:56 AM 78.1 °F - 73.0 °F 84% 29.98 in 10.0 mi WSW 4.6 mph - N/A   Clear
9:56 AM 84.0 °F 90.2 °F 73.0 °F 69% 29.98 in 10.0 mi South 3.5 mph - N/A   Clear
10:56 AM 87.1 °F 90.6 °F 68.0 °F 53% 29.97 in 10.0 mi SSW 9.2 mph - N/A   Clear
11:56 AM 89.1 °F 90.0 °F 63.0 °F 42% 29.96 in 10.0 mi WSW 15.0 mph 20.7 mph N/A   Clear
12:56 PM 90.0 °F 91.7 °F 64.9 °F 43% 29.94 in 10.0 mi WSW 11.5 mph - N/A   Clear
1:56 PM 90.0 °F 92.4 °F 66.0 °F 45% 29.92 in 10.0 mi SSW 9.2 mph - N/A   Scattered Clouds
2:56 PM 91.0 °F 93.8 °F 66.0 °F 44% 29.90 in 10.0 mi Variable 6.9 mph - N/A   Scattered Clouds
3:56 PM 90.0 °F 92.4 °F 66.0 °F 45% 29.89 in 10.0 mi South 8.1 mph - N/A   Scattered Clouds
4:56 PM 91.0 °F 94.3 °F 66.9 °F 45% 29.88 in 10.0 mi SSW 10.4 mph - N/A   Partly Cloudy
5:56 PM 89.1 °F 90.0 °F 63.0 °F 42% 29.88 in 10.0 mi SSW 6.9 mph - N/A   Clear
6:56 PM 87.1 °F 88.9 °F 64.9 °F 48% 29.88 in 10.0 mi SW 3.5 mph - N/A   Clear
7:56 PM 78.1 °F - 68.0 °F 71% 29.88 in 10.0 mi Calm Calm - N/A   Clear
8:56 PM 75.0 °F - 70.0 °F 84% 29.90 in 10.0 mi Calm Calm - N/A   Clear
9:56 PM 71.1 °F - 69.1 °F 93% 29.92 in 10.0 mi Calm Calm - N/A   Clear
10:56 PM 69.1 °F - 68.0 °F 96% 29.94 in 10.0 mi Calm Calm - N/A   Clear
11:56 PM 68.0 °F - 68.0 °F 100% 29.93 in 10.0 mi Calm Calm - N/A   Clear